This is the latest recevied weather packets stored in our database for station/object E7HQ-1. If no packets are shown the sender has not sent any weather packets the latest 10 day(s).
| Time | Temp. | Humidity | Pressure | Rain* | Wind** | Luminosity | Snow |
|---|---|---|---|---|---|---|---|
| 1777704116 | 13.89° C | 32% | 1033.1 hPa | - | - | - | - |
| 1777703216 | 13.89° C | 33% | 1033.2 hPa | - | - | - | - |
| 1777702320 | 12.78° C | 33% | 1033.3 hPa | - | - | - | - |
| 1777701420 | 12.22° C | 36% | 1033.4 hPa | - | - | - | - |
| 1777700520 | 10° C | 40% | 1033.4 hPa | - | - | - | - |
| 1777699620 | 9.44° C | 41% | 1033.3 hPa | - | - | - | - |
| 1777698719 | 8.89° C | 42% | 1033.3 hPa | - | - | - | - |
| 1777697819 | 8.89° C | 41% | 1033.3 hPa | - | - | - | - |
| 1777696919 | 8.33° C | 43% | 1033.2 hPa | - | - | - | - |
| 1777696019 | 7.78° C | 42% | 1033.2 hPa | - | - | - | - |
| 1777695119 | 7.78° C | 42% | 1033.2 hPa | - | - | - | - |
| 1777694219 | 7.78° C | 42% | 1033.2 hPa | - | - | - | - |
| 1777693318 | 7.78° C | 42% | 1033.1 hPa | - | - | - | - |
| 1777692418 | 7.78° C | 42% | 1033.1 hPa | - | - | - | - |
| 1777691518 | 7.78° C | 42% | 1033 hPa | - | - | - | - |
| 1777690632 | 7.78° C | 42% | 1033 hPa | - | - | - | - |
| 1777689717 | 7.78° C | 42% | 1033.1 hPa | - | - | - | - |
| 1777688817 | 7.78° C | 42% | 1033.2 hPa | - | - | - | - |
| 1777687917 | 8.33° C | 41% | 1033.1 hPa | - | - | - | - |
| 1777687017 | 8.33° C | 42% | 1033.1 hPa | - | - | - | - |
| 1777686117 | 7.78° C | 42% | 1033.1 hPa | - | - | - | - |
| 1777685216 | 7.78° C | 42% | 1033.2 hPa | - | - | - | - |
| 1777684316 | 7.78° C | 42% | 1033.2 hPa | - | - | - | - |
| 1777683416 | 7.78° C | 42% | 1033.3 hPa | - | - | - | - |
| 1777682516 | 7.78° C | 42% | 1033.3 hPa | - | - | - | - |
* Rain since midnight (hover to see other rain measurements)
** Current wind speed in m/s (hover to see current wind gust speed)